Weather History for Charlotte, NC

Change the Weather History Date:

Friday, September 20, 2002

  Actual Average Record
Temperature  
Mean Temperature 76 °F 70 °F  
Max Temperature 81 °F 80 °F 98 °F (1925)
Min Temperature 71 °F 59 °F 45 °F (1929)
Degree Days  
Heating Degree Days 0 1  
Month to date heating degree days 5  
Since 1 July heating degree days 5  
Cooling Degree Days 10 5  
Month to date cooling degree days 158  
Year to date cooling degree days 1435  
Growing Degree Days 26 (Base 50)    
Moisture  
Dew Point 69 °F    
Average Humidity 82    
Maximum Humidity 94    
Minimum Humidity 69    
Precipitation  
Precipitation 0.00 in 0.11 in 2.82 in (1918)
Month to date precipitation 2.14  
Year to date precipitation 30.74  
Snow  
Snow 0.00 in 0.00 in 0.00 in ()
Month to date snowfall 0.0  
Since 1 July snowfall 0.0  
Since 1 September snowfall 0.0  
Snow Depth -    
Sea Level Pressure  
Sea Level Pressure 30.01 in    
Wind  
Wind Speed 6 mph (SSE)    
Max Wind Speed 9 mph    
Max Gust Speed -    
Visibility 9 miles    
Events      
T = Trace of Precipitation, MM = Missing Value Source: NWS Daily Summary

Daily Weather History Graph

Daily Weather History Graph

Search for Another Location

Airport:

Trip Planner

Search our weather history database for the weather conditions in past years. The results will help you decide how hot, cold, wet, or windy it might be!

Date:

Astronomy

Sep. 20, 2002 Rise Set
Actual Time 7:10 AM EDT 7:23 PM EDT
Civil Twilight 6:44 AM EDT 7:49 PM EDT
Nautical Twilight 6:15 AM EDT 8:18 PM EDT
Astronomical Twilight 5:45 AM EDT 8:48 PM EDT
Moon 7:24 PM EDT 6:07 AM EDT
Length of Visible Light 13h 04m
Length of Day
12h 13m
Waxing Gibbous, 99% of the Moon is Illuminated
Sep 20
Waxing Gibbous
Sep 21
Full
Sep 29
Last Quarter
Oct 6
New
Oct 13
First Quarter

Hourly Weather History & Observations

Time (EDT) Temp. Heat Index Dew Point Humidity Pressure Visibility Wind Dir Wind Speed Gust Speed Precip Events Conditions
12:51 AM 73.9 °F - 69.1 °F 85% 30.04 in 6.0 mi SE 6.9 mph - N/A   Haze
1:51 AM 73.0 °F - 69.1 °F 87% 30.03 in 6.0 mi SSE 8.1 mph - N/A   Overcast
2:51 AM 72.0 °F - 69.1 °F 91% 30.03 in 6.0 mi SSE 5.8 mph - N/A   Overcast
3:51 AM 72.0 °F - 66.9 °F 84% 30.02 in 8.0 mi SSE 5.8 mph - N/A   Overcast
4:51 AM 71.1 °F - 66.0 °F 84% 30.01 in 9.0 mi South 5.8 mph - N/A   Overcast
5:51 AM 71.1 °F - 66.0 °F 84% 30.01 in 10.0 mi South 3.5 mph - N/A   Overcast
6:51 AM 71.1 °F - 66.9 °F 87% 30.03 in 10.0 mi SSE 4.6 mph - N/A   Overcast
7:51 AM 71.1 °F - 68.0 °F 90% 30.04 in 9.0 mi South 3.5 mph - N/A   Overcast
8:01 AM 71.6 °F - 68.0 °F 88% 30.06 in 9.0 mi South 4.6 mph - N/A   Overcast
8:51 AM 72.0 °F - 69.1 °F 91% 30.04 in 8.0 mi Calm Calm - N/A   Overcast
9:07 AM 71.6 °F - 69.8 °F 94% 30.06 in 8.0 mi SE 5.8 mph - N/A   Overcast
9:51 AM 73.9 °F - 71.1 °F 91% 30.04 in 9.0 mi SSE 8.1 mph - N/A   Overcast
10:22 AM 75.2 °F - 71.6 °F 89% 30.07 in 10.0 mi South 5.8 mph - N/A   Overcast
10:51 AM 75.0 °F - 71.1 °F 87% 30.05 in 10.0 mi South 6.9 mph - N/A   Overcast
11:51 AM 77.0 °F - 72.0 °F 84% 30.05 in 10.0 mi SSE 6.9 mph - N/A   Overcast
12:51 PM 80.1 °F 83.2 °F 70.0 °F 71% 30.04 in 10.0 mi SSE 8.1 mph - N/A   Overcast
1:51 PM 79.0 °F - 70.0 °F 74% 30.02 in 10.0 mi ESE 9.2 mph - N/A   Overcast
2:51 PM 79.0 °F - 70.0 °F 74% 29.99 in 10.0 mi SE 6.9 mph - N/A   Overcast
3:51 PM 80.1 °F 83.2 °F 70.0 °F 71% 29.98 in 10.0 mi South 6.9 mph - N/A   Overcast
4:51 PM 80.1 °F 82.9 °F 69.1 °F 69% 29.96 in 10.0 mi SSE 5.8 mph - N/A   Overcast
5:51 PM 80.1 °F 83.2 °F 70.0 °F 71% 29.96 in 10.0 mi South 6.9 mph - N/A   Scattered Clouds
6:51 PM 79.0 °F - 69.1 °F 72% 29.95 in 10.0 mi SE 9.2 mph - N/A   Mostly Cloudy
7:51 PM 77.0 °F - 69.1 °F 76% 29.95 in 10.0 mi SE 6.9 mph - N/A   Mostly Cloudy
8:51 PM 77.0 °F - 69.1 °F 76% 29.97 in 10.0 mi SE 8.1 mph - N/A   Scattered Clouds
9:51 PM 75.9 °F - 66.9 °F 74% 29.99 in 10.0 mi ESE 9.2 mph - N/A   Scattered Clouds
10:51 PM 73.9 °F - 68.0 °F 82% 29.99 in 10.0 mi SSE 9.2 mph - N/A   Mostly Cloudy
11:51 PM 72.0 °F - 68.0 °F 87% 29.99 in 10.0 mi South 6.9 mph - N/A   Partly Cloudy